Location: Cortada de Papelón
(10.0378°N, 66.9528°W)
Time: 10:31:48
(UTC+00:00)

Sylda 5 - Pass Details

Date: 13 June 2024
Orbit: 598 x 35450 km, 6.3° (Epoch: 19 July)

Event Time Altitude Azimuth Distance (km) Brightness Sun altitude
Rises 22:55:23 0° 254° (WSW) 8,138 8.6 -2.2°
Reaches altitude 10° 23:03:53 10° 244° (WSW) 4,498 7.1 -4.1°
Maximum altitude 23:11:10 26° 188° (S) 1,653 4.1 -5.7°
Drops below altitude 10° 23:14:31 10° 127° (SE) 2,009 4.0 -6.5°
Enters shadow 23:14:57 - 122° (ESE) 2,162 4.2 -6.6°
